Regional Weather Roundup
Issued by NWS

Home | Current Version | Previous Version | Graphics & Text | Print | Product List | Glossary On
Versions: 1 2 3 4 5 6 7 8 9 10 11 12 13 14 15 16 17 18 19 20 21 22 23 24 25 26 27
000
ASUS45 KCYS 212110
RWRWY

WYOMING REGIONAL WEATHER ROUNDUP
NATIONAL WEATHER SERVICE CHEYENNE WY
300 PM MDT THU SEP 21 2017

NOTE:  "FAIR" INDICATES FEW OR NO CLOUDS BELOW 12,000 FEET
WITH NO SIGNIFICANT WEATHER AND/OR OBSTRUCTIONS TO VISIBILITY.

WYZ001-212200-
YELLOWSTONE NATIONAL PARK

CITY           SKY/WX    TMP DP  RH WIND       PRES   REMARKS
LK YELLOWSTONE NOT AVBL
W YELLOWSTONE  NOT AVBL

$$
WYZ002>013-054>058-071-098>099-212200-
NORTHERN WYOMING

CITY           SKY/WX    TMP DP  RH WIND       PRES   REMARKS
JACKSON        CLOUDY    39  37  92 VRB3      29.81S
CODY           LGT RAIN  43  39  86 N12       29.83S
GREYBULL       FAIR      57  42  57 NW18      29.76S
WORLAND        CLOUDY    55  43  63 N13       29.76R
SHERIDAN       CLOUDY    53  41  63 NW15      29.82R
BUFFALO        CLOUDY    56  40  55 N14       29.82S
GILLETTE       FAIR      64  40  41 N14       29.77R
HULETT         FAIR      66  39  37 N12       29.77S
NEWCASTLE      FAIR      77  30  18 W7        29.71S

$$
WYZ014>020-022>026-101>103-212200-
CENTRAL WYOMING

CITY           SKY/WX    TMP DP  RH WIND       PRES   REMARKS
BIG PINEY      FAIR      63  34  33 SW23G35   29.75F
PINEDALE       CLOUDY    59  34  38 SW8G21    29.76F
DUBOIS         MOCLDY    46  39  76 N6        29.77F
LANDER           N/A    N/A N/A N/A MISG      29.67F
RIVERTON       FAIR      68  38  33 VRB5      29.68F
CASPER         FAIR      71  34  25 VRB6      29.69F
DOUGLAS        FAIR      86  23  10 W15G31    29.69S

$$
WYZ021-027>030-104>119-212200-
SOUTHERN WYOMING

CITY           SKY/WX    TMP DP  RH WIND       PRES   REMARKS
EVANSTON       FAIR      64  38  38 SW17G25   29.69F
KEMMERER         N/A     59  36  41 SW9       29.75F
FORT BRIDGER   CLOUDY    63  38  39 N6        29.74F
ROCK SPRINGS   FAIR      68  28  22 SW25G37   29.70F
DIXON          FAIR      77  22  12 S26G43    29.79S
RAWLINS        FAIR      74  25  16 SW30G41   29.77F
SARATOGA       FAIR      75  19  12 S26G41    29.81S
LARAMIE        FAIR      77  15   9 SW24G31   29.83F
CHEYENNE       FAIR      83  15   8 SE14G21   29.78F
TORRINGTON     FAIR      86  28  12 E12       29.64F
PINE BLUFFS    FAIR      86  23  10 S14       29.74F

$$




USA.gov is the U.S. government's official web portal to all federal, state and local government web resources and services.